Flag for U.S.A. Weather past 2 weeks in Clarksville, Tennessee, U.S.A.

Now
19 °F

Ice fog.


Feels Like: 5 °F
Forecast: 11 / 26 °F
Wind: 14 mph from North

Location: Outlaw Field

Current Time: Mar 5, 2015 at 3:03:15 AM

Latest Report: Mar 5, 2015 at 1:52 AM


Visibility: 0 mi

Pressure: 30.25 "Hg

Humidity: 88%

Dew point: 16 °F

Location of ClarksvilleLocation

Historic Weather in Clarksville — Graph

°F

Clarksville temperature yesterday

Maximum temperature yesterday: 52 °F (at 1:01 AM)
Minimum temperature yesterday: 21 °F (at 10:48 PM)
Average temperature yesterday: 37 °F

Past Weeks' High & Low Weather Summary

 TemperatureHumidityPressure
High64 °F (Mar 3, 2:52 PM)100% (Mar 1, 1:52 PM)30.66 "Hg (Mar 1, 1:52 PM)
Low-5 °F (Feb 19, 6:52 AM)40% (Feb 19, 4:52 PM)29.82 "Hg (Feb 21, 11:52 AM)
Average29 °F74%30.25 "Hg
* Reported Feb 18 1:52 AM — Mar 5 1:52 AM, Clarksville, Weather by CustomWeather, © 2015

Note: Actual official high and low records may vary slightly from our data, if they occured in-between our weather recording intervals... More about our weather records

Advertising

Clarksville weather history for previous 24 hours

 ConditionsComfort  
Time TempWeatherWind HumidityBarometerVisibility
1:52 AM
Thu, Mar 5
19 °FIce fog.14 mph88%30.25 "Hg1 mi
12:52 AM20 °FLight snow. Ice fog.21 mph89%30.25 "Hg1 mi
12:00 AM20 °FLight snow. Ice fog.16 mph89%30.23 "Hg1 mi
10:48 PM
Wed, Mar 4
21 °FLight snow. Ice fog.17 mph92%30.24 "Hg1 mi
10:00 PM23 °FLight snow. Ice fog.20 mph85%30.23 "Hg6 mi
8:52 PM24 °FLight snow. Ice fog.16 mph88%30.19 "Hg4 mi
7:52 PM25 °FLight snow. Ice fog.16 mph92%30.19 "Hg2 mi
7:02 PM27 °FLight snow. Ice fog.17 mph89%30.14 "Hg5 mi
6:52 PM27 °FLight snow. Ice fog.16 mph92%30.14 "Hg4 mi
5:52 PM29 °FLight snow. Ice fog.15 mph93%30.13 "Hg4 mi
4:52 PM31 °FFreezing rain. Ice fog.20 mph92%30.10 "Hg2 mi
4:46 PM30 °FFreezing rain. Ice fog.18 mph100%30.09 "Hg1 mi
3:52 PM33 °FLight rain. Overcast.18 mph88%30.05 "Hg7 mi
2:52 PM35 °FLight rain. Fog.18 mph88%30.01 "Hg5 mi
2:02 PM35 °FRain. Fog.16 mph92%29.98 "Hg2 mi
1:52 PM35 °FHeavy rain. Fog.14 mph92%30.01 "Hg2 mi
1:02 PM36 °FRain. Fog.18 mph92%29.99 "Hg2 mi
12:52 PM36 °FRain. Fog.18 mph92%30.01 "Hg1 mi
12:02 PM38 °FLight snow. Fog.18 mph93%30.00 "Hg2 mi
11:52 AM38 °FLight snow. Fog.17 mph93%30.01 "Hg3 mi
10:52 AM39 °FLight rain. Fog.15 mph96%30.00 "Hg2 mi
9:52 AM42 °FFog.16 mph92%29.98 "Hg4 mi
8:52 AM44 °FLight rain. Fog.12 mph96%29.96 "Hg6 mi
7:52 AM45 °FLight rain. Fog.13 mph93%29.95 "Hg3 mi
6:59 AM45 °FHeavy rain. Fog.10 mph97%29.92 "Hg2 mi
5:47 AM45 °FLight rain. Fog.5 mph100%29.90 "Hg5 mi
4:52 AM45 °FHeavy rain. Fog.6 mph100%29.90 "Hg2 mi
4:03 AM47 °FRain. Fog.9 mph97%29.93 "Hg2 mi
3:52 AM47 °FRain. Fog.8 mph97%29.90 "Hg3 mi
Weather by CustomWeather, © 2015

See weather overviewHow to use our weather pages